CW7710 Weather Reports


Display with metric or nautical units.
time (UTC)temp
F
wind
direction
speed
MPH
gust
MPH
rain 1hr
in
rain 24hr
in
rain mn
in
humidity
%
barometer
mb
20260901134335 52 84 1.0 0.0 0.00 0.00 0.00 78 1016.1
20260901133338 51 63 1.0 0.0 0.00 0.00 0.00 78 1016.1
20260901132326 50 58 3.0 0.0 0.00 0.00 0.00 78 1016.2
20260901131349 50 86 3.0 0.0 0.00 0.00 0.00 79 1015.2
20260901130331 50 181 0.0 0.0 0.00 0.00 0.00 79 1013.6
20260901125334 50 119 0.0 0.0 0.00 0.00 0.00 80 1015.2
20260901124341 50 119 3.0 0.0 0.00 0.00 0.00 81 1015.2
20260901123344 50 140 2.0 0.0 0.00 0.00 0.00 81 1015.1
20260901122328 49 119 1.0 0.0 0.00 0.00 0.00 82 1015.3
20260901121334 49 82 1.0 0.0 0.00 0.00 0.00 82 1015.2
20260901120336 48 82 2.0 0.0 0.00 0.00 0.00 82 1015.4
20260901115338 48 36 0.0 0.0 0.00 0.00 0.00 82 1015.4
20260901114341 48 36 0.0 0.0 0.00 0.00 0.00 81 1015.5
20260901113325 48 36 0.0 0.0 0.00 0.00 0.00 81 1015.4
20260901112328 48 20 0.0 0.0 0.00 0.00 0.00 80 1015.3
20260901111337 49 20 1.0 0.0 0.00 0.00 0.00 80 1015.4
20260901110323 49 143 0.0 0.0 0.00 0.00 0.00 79 1015.6
20260901105330 49 92 1.0 0.0 0.00 0.00 0.00 79 1015.5
20260901104333 49 139 3.0 0.0 0.00 0.00 0.00 78 1015.6
20260901103343 50 86 2.0 0.0 0.00 0.00 0.00 78 1015.5
20260901102327 50 111 3.0 0.0 0.00 0.00 0.00 78 1015.6
20260901101353 51 171 5.0 0.0 0.00 0.00 0.00 78 1015.3
20260901100336 51 158 5.0 0.0 0.00 0.00 0.00 79 1015.3
20260901095343 50 124 3.0 0.0 0.00 0.00 0.00 80 1015.5
20260901094346 50 97 4.0 0.0 0.00 0.00 0.00 80 1015.5
20260901093329 49 94 4.0 0.0 0.00 0.00 0.00 80 1015.6
20260901092333 49 107 2.0 0.0 0.00 0.00 0.00 79 1015.8
20260901091356 49 82 4.0 0.0 0.00 0.00 0.00 78 1015.7
20260901090406 50 75 3.0 0.0 0.00 0.00 0.00 76 1015.8
20260901085328 52 2 3.0 0.0 0.00 0.00 0.00 76 1016.0
20260901084332 51 171 3.0 0.0 0.00 0.00 0.00 76 1015.9
20260901083336 51 203 1.0 0.0 0.00 0.00 0.00 76 1015.8
20260901082344 51 111 4.0 0.0 0.00 0.00 0.00 76 1015.8
20260901081347 52 169 3.0 0.0 0.00 0.00 0.00 76 1015.8
20260901080329 52 138 4.0 0.0 0.00 0.00 0.00 77 1015.9
20260901075331 51 99 4.0 0.0 0.00 0.00 0.00 78 1015.5
20260901074335 50 87 3.0 0.0 0.00 0.00 0.00 77 1016.0
20260901073326 50 98 3.0 0.0 0.00 0.00 0.00 76 1016.1
20260901072349 52 67 0.0 0.0 0.00 0.00 0.00 75 1015.6
20260901071334 51 172 1.0 0.0 0.00 0.00 0.00 75 1015.8
20260901070340 52 172 2.0 0.0 0.00 0.00 0.00 75 1015.7
20260901065348 52 155 1.0 0.0 0.00 0.00 0.00 75 1015.9
20260901064332 52 155 1.0 0.0 0.00 0.00 0.00 75 1016.0
20260901063335 52 84 0.0 0.0 0.00 0.00 0.00 75 1016.0
20260901062339 52 84 1.0 0.0 0.00 0.00 0.00 74 1015.9
20260901061346 52 208 1.0 0.0 0.00 0.00 0.00 73 1016.1
20260901060328 53 156 0.0 0.0 0.00 0.00 0.00 72 1015.8
20260901055331 53 156 0.0 0.0 0.00 0.00 0.00 72 1015.2
20260901054337 54 155 1.0 0.0 0.00 0.00 0.00 71 1015.4
20260901053339 54 155 0.0 0.0 0.00 0.00 0.00 71 1015.4
20260901052327 54 155 1.0 0.0 0.00 0.00 0.00 69 1015.4
20260901051350 55 156 2.0 0.0 0.00 0.00 0.00 67 1016.0
20260901050353 56 204 3.0 0.0 0.00 0.00 0.00 65 1016.1
20260901045336 57 133 5.0 0.0 0.00 0.00 0.00 64 1015.3
20260901044340 58 125 4.0 0.0 0.00 0.00 0.00 64 1016.0
20260901043328 56 100 4.0 0.0 0.00 0.00 0.00 66 1015.5
20260901042330 55 90 3.0 0.0 0.00 0.00 0.00 66 1016.0
20260901041333 56 26 5.0 0.0 0.00 0.00 0.00 63 1015.8
20260901040339 59 28 3.0 0.0 0.00 0.00 0.00 56 1016.4
20260901035347 60 98 2.0 0.0 0.00 0.00 0.00 54 1016.2
20260901034329 59 100 3.0 0.0 0.00 0.00 0.00 54 1016.1
20260901033352 59 176 3.0 0.0 0.00 0.00 0.00 56 1015.9
20260901032337 60 195 4.0 0.0 0.00 0.00 0.00 53 1015.9
20260901031400 61 190 3.0 0.0 0.00 0.00 0.00 50 1015.6
20260901030326 65 113 0.0 0.0 0.00 0.00 0.00 45 1016.9
20260901025329 66 113 1.0 0.0 0.00 0.00 0.00 43 1015.8
20260901024332 66 63 0.0 0.0 0.00 0.00 0.00 42 1015.8
20260901023336 66 55 1.0 0.0 0.00 0.00 0.00 43 1015.8
20260901022329 67 171 5.0 0.0 0.00 0.00 0.00 39 1015.7
20260901021336 67 191 7.0 0.0 0.00 0.00 0.00 41 1015.6
20260901020339 69 190 8.0 0.0 0.00 0.00 0.00 40 1015.4
20260901015341 70 190 5.0 0.0 0.00 0.00 0.00 40 1015.3
20260901014327 73 191 5.0 0.0 0.00 0.00 0.00 36 1014.6
20260901013330 76 176 5.0 0.0 0.00 0.00 0.00 33 1015.4
20260901012333 78 166 1.0 0.0 0.00 0.00 0.00 27 1015.1
20260901011336 79 255 1.0 0.0 0.00 0.00 0.00 26 1015.2
20260901010359 79 255 2.0 0.0 0.00 0.00 0.00 23 1015.2
20260901005405 81 283 1.0 0.0 0.00 0.00 0.00 23 1015.5
20260901004326 80 269 1.0 0.0 0.00 0.00 0.00 22 1015.6
20260901003329 80 290 2.0 0.0 0.00 0.00 0.00 23 1015.6
20260901002333 80 312 3.0 0.0 0.00 0.00 0.00 22 1015.7
20260901001336 80 311 3.0 0.0 0.00 0.00 0.00 22 1015.7
20260901000344 80 307 4.0 0.0 0.00 0.00 0.00 23 1015.8
20260831235326 80 306 3.0 0.0 0.00 0.00 0.00 22 1016.0
20260831234329 80 277 3.0 0.0 0.00 0.00 0.00 22 1016.1
20260831233335 79 304 4.0 0.0 0.00 0.00 0.00 22 1016.2
20260831232343 79 314 5.0 0.0 0.00 0.00 0.00 22 1016.3
20260831231326 80 5 5.0 0.0 0.00 0.00 0.00 21 1016.4
20260831230333 79 323 4.0 0.0 0.00 0.00 0.00 21 1016.5
20260831225336 79 325 5.0 0.0 0.00 0.00 0.00 23 1016.3
20260831224329 79 336 6.0 0.0 0.00 0.00 0.00 22 1016.4
20260831223331 80 329 3.0 0.0 0.00 0.00 0.00 22 1016.5
20260831222334 80 7 3.0 0.0 0.00 0.00 0.00 23 1016.5
20260831221338 79 340 4.0 0.0 0.00 0.00 0.00 22 1016.6
20260831220328 79 332 1.0 0.0 0.00 0.00 0.00 23 1016.8
20260831215331 78 74 2.0 0.0 0.00 0.00 0.00 22 1016.7
20260831214355 78 12 3.0 0.0 0.00 0.00 0.00 23 1016.7
20260831213357 77 345 2.0 0.0 0.00 0.00 0.00 24 1016.9
20260831212339 77 50 1.0 0.0 0.00 0.00 0.00 26 1017.1
20260831211326 75 36 3.0 0.0 0.00 0.00 0.00 27 1017.7
20260831210349 75 31 3.0 0.0 0.00 0.00 0.00 29 1017.7
20260831205331 74 35 5.0 0.0 0.00 0.00 0.00 29 1017.7
20260831204335 74 74 4.0 0.0 0.00 0.00 0.00 30 1017.7
20260831203358 74 84 5.0 0.0 0.00 0.00 0.00 30 1017.9
20260831202404 73 45 5.0 0.0 0.00 0.00 0.00 32 1018.0
20260831201346 73 70 4.0 0.0 0.00 0.00 0.00 32 1018.2
20260831200350 73 90 3.0 0.0 0.00 0.00 0.00 32 1018.4
20260831195352 73 98 3.0 0.0 0.00 0.00 0.00 32 1018.9
20260831194337 72 349 3.0 0.0 0.00 0.00 0.00 33 1018.3
20260831193325 71 345 1.0 0.0 0.00 0.00 0.00 32 1018.5
20260831192328 71 139 3.0 0.0 0.00 0.00 0.00 32 1018.7
20260831191332 70 150 2.0 0.0 0.00 0.00 0.00 33 1019.1
20260831190335 70 103 3.0 0.0 0.00 0.00 0.00 35 1019.1
20260831185322 69 84 2.0 0.0 0.00 0.00 0.00 33 1019.2
20260831184329 69 151 3.0 0.0 0.00 0.00 0.00 34 1019.2
20260831183336 68 165 3.0 0.0 0.00 0.00 0.00 36 1019.4
20260831182338 67 176 3.0 0.0 0.00 0.00 0.00 37 1019.8
20260831181344 66 81 4.0 0.0 0.00 0.00 0.00 37 1020.1
20260831180327 65 61 4.0 0.0 0.00 0.00 0.00 37 1020.6
20260831175331 65 90 4.0 0.0 0.00 0.00 0.00 39 1020.0
20260831174334 64 69 3.0 0.0 0.00 0.00 0.00 37 1020.3
20260831173341 64 117 2.0 0.0 0.00 0.00 0.00 39 1020.5
20260831172405 64 73 2.0 0.0 0.00 0.00 0.00 44 1020.5
20260831171326 63 15 2.0 0.0 0.00 0.00 0.00 44 1020.6
20260831170329 62 102 1.0 0.0 0.00 0.00 0.00 46 1021.0
20260831165336 60 116 1.0 0.0 0.00 0.00 0.00 49 1020.7
20260831164404 59 127 1.0 0.0 0.00 0.00 0.00 52 1020.9
20260831163326 58 92 3.0 0.0 0.00 0.00 0.00 56 1020.4
20260831162329 57 81 2.0 0.0 0.00 0.00 0.00 58 1020.5
20260831161337 56 91 3.0 0.0 0.00 0.00 0.00 60 1020.7
20260831160344 55 94 2.0 0.0 0.00 0.00 0.00 62 1020.7
20260831155327 54 113 2.0 0.0 0.00 0.00 0.00 64 1021.0
20260831154351 53 115 3.0 0.0 0.00 0.00 0.00 66 1021.2
20260831153335 52 113 3.0 0.0 0.00 0.00 0.00 69 1020.6
20260831152338 51 73 4.0 0.0 0.00 0.00 0.00 71 1020.8
20260831151326 49 75 4.0 0.0 0.00 0.00 0.00 74 1020.9
20260831150328 48 111 4.0 0.0 0.00 0.00 0.00 77 1021.3
20260831145332 48 85 5.0 0.0 0.00 0.00 0.00 79 1020.7
20260831144339 47 93 5.0 0.0 0.00 0.00 0.00 81 1020.8
20260831143326 46 90 4.0 0.0 0.00 0.00 0.00 83 1020.9
20260831142328 46 76 3.0 0.0 0.00 0.00 0.00 84 1020.6
20260831141334 44 82 2.0 0.0 0.00 0.00 0.00 84 1021.0
20260831140357 44 42 1.0 0.0 0.00 0.00 0.00 84 1020.1
20260831135324 43 127 3.0 0.0 0.00 0.00 0.00 84 1020.3